Regional Weather Roundup
Issued by NWS Goodland, KS

Home | Current Version | Previous Version | Text Only | Print | Product List | Glossary On
Versions: 1 2 3 4 5 6 7 8 9 10 11 12 13 14 15 16 17 18 19 20 21 22 23 24 25 26 27 28 29 30 31 32 33 34 35 36 37 38 39 40 41 42 43 44 45 46 47 48 49 50
000
ASUS43 KGLD 281908
RWRGLD

GOODLAND FORECAST AREA HOURLY WEATHER ROUNDUP
NATIONAL WEATHER SERVICE GOODLAND KS
100 PM MDT TUE APR 28 2015

...OFFICIAL OBSERVATIONS...

CITY           SKY/WX    TMP DP  RH WIND       PRES   REMARKS
GOODLAND KS    MOSUNNY   64  37  36 MISG      30.27F
HILL CITY KS   SUNNY     66  40  38 N8G20     30.22F
IMPERIAL NEB   CLOUDY    61  39  44 VRB5      30.27F
MCCOOK NEB     PTSUNNY   66  39  37 VRB5      30.24F
AKRON CO       PTSUNNY   53  40  61 NE7       30.30F
BURLINGTON CO  MOSUNNY   59  35  40 N9        30.29F
LIMON CO       PTSUNNY   51  29  42 S5        30.31F
$$

...UNOFFICIAL OBSERVATIONS...

CITY           SKY/WX    TMP DP  RH WIND       PRES   REMARKS
COLBY KS       MOSUNNY   64  39  39 N9G16     30.26F
GOVE KS          N/A     65  32  29 MISG        N/A
NORTON KS      SUNNY     66  34  30 N9        30.22F
SHARON SPRINGS   N/A     61  41  47 N12         N/A
TRIBUNE KS     MOSUNNY   61  45  55 NE10      30.28F
KIT CARSON CO    N/A     59  34  39 MISG        N/A
YUMA CO          N/A     56  42  58 NW5         N/A
$$


USA.gov is the U.S. government's official web portal to all federal, state and local government web resources and services.